Overview Statistics Trail Chart Weather Telemetry Raw packets
 

This is the latest recevied weather packets stored in our database for station/object LU1MQF-13. If no packets are shown the sender has not sent any weather packets the latest 10 day(s).

<< 29 30 31 32 33 34 35 >>
Time Temp. Humidity Pressure Rain* Wind** Luminosity Snow
1777333310 13.89° C 36% 938.3 hPa - - - -
1777332410 13.89° C 36% 938.1 hPa - - - -
1777331510 13.89° C 36% 938 hPa - - - -
1777330610 15° C 37% 937.8 hPa - - - -
1777329710 15° C 37% 937.6 hPa - - - -
1777328810 16.11° C 37% 937.2 hPa - - - -
1777327910 16.11° C 37% 937 hPa - - - -
1777327010 17.22° C 37% 937.1 hPa - - - -
1777326110 17.22° C 37% 937.1 hPa - - - -
1777325209 17.78° C 37% 937.1 hPa - - - -
1777324310 17.78° C 37% 937.1 hPa - - - -
1777322510 17.78° C 36% 937.1 hPa - - - -
1777321610 18.89° C 35% 936.9 hPa - - - -
1777320710 18.89° C 36% 937 hPa - - - -
1777319810 18.89° C 35% 937 hPa - - - -
1777318910 18.89° C 35% 937.1 hPa - - - -
1777318010 18.89° C 35% 937.3 hPa - - - -
1777317109 18.89° C 35% 937.3 hPa - - - -
1777316209 18.89° C 32% 937.5 hPa - - - -
1777315310 18.89° C 34% 937.7 hPa - - - -
1777314410 18.89° C 34% 937.8 hPa - - - -
1777313510 18.89° C 34% 937.9 hPa - - - -
1777312610 18.89° C 35% 938.2 hPa - - - -
1777311709 18.89° C 37% 938.4 hPa - - - -
1777310810 18.89° C 35% 938.6 hPa - - - -

* Rain since midnight (hover to see other rain measurements)
** Current wind speed in m/s (hover to see current wind gust speed)